Weather History for CYQG - May, 2013

Change the Weather History Date:

Wednesday, May 22, 2013

  Actual Average Record
Temperature  
Mean Temperature 75 °F -  
Max Temperature 83 °F 75 °F 83 °F (2013)
Min Temperature 66 °F 54 °F 41 °F (2003)
Cooling Degree Days 10    
Growing Degree Days 25 (Base 50)    
Moisture  
Dew Point 62 °F    
Average Humidity 70    
Maximum Humidity 83    
Minimum Humidity 45    
Precipitation  
Precipitation 0.03 in 0.12 in - ()
Sea Level Pressure  
Sea Level Pressure 29.72 in    
Wind  
Wind Speed 11 mph ()    
Max Wind Speed 26 mph    
Max Gust Speed 32 mph    
Visibility 13.9 miles    
Events Rain , Thunderstorm    
Averages and records for this station are not official NWS values.
T = Trace of Precipitation, MM = Missing Value Source: Averaged Metar Reports

Daily Weather History Graph

Daily Weather History Graph

Search for Another Location

Airport or City:

Trip Planner

Search our weather history database for the weather conditions in past years. The results will help you decide how hot, cold, wet, or windy it might be!

Date:

Astronomy

May. 22, 2013 Rise Set
Actual Time 6:04 AM EDT 8:53 PM EDT
Civil Twilight 5:31 AM EDT 9:26 PM EDT
Nautical Twilight 4:49 AM EDT 10:08 PM EDT
Astronomical Twilight 4:01 AM EDT 10:56 PM EDT
Moon 6:11 PM EDT (5/22) 4:10 AM EDT (5/22)
Length of Visible Light 15h 55m
Length of Day
14h 49m
Waxing Gibbous, 91% of the Moon is Illuminated
May 22
Waxing Gibbous
May 25
Full
May 31
Last Quarter
Jun 8
New
Jun 16
First Quarter

Hourly Weather History & Observations

Time (EDT) Temp. Heat Index Dew Point Humidity Pressure Visibility Wind Dir Wind Speed Gust Speed Precip Events Conditions
12:00 AM 69.8 °F - 64.4 °F 83% 29.76 in 12.0 mi SSE 8.1 mph - N/A   Mostly Cloudy
1:00 AM 69.8 °F - 62.6 °F 78% 29.75 in 12.0 mi South 4.6 mph - N/A   Mostly Cloudy
2:00 AM 72 °F - 62 °F 62% 29.75 in 12 mi SSW 8.1 mph - -   Partly Cloudy
2:00 AM 71.6 °F - 62.6 °F 73% 29.75 in 12.0 mi SW 8.1 mph - N/A   Overcast
3:00 AM 71.6 °F - 62.6 °F 73% 29.74 in 12.0 mi SSW 8.1 mph - N/A   Mostly Cloudy
4:00 AM 69.8 °F - 62.6 °F 78% 29.74 in 12.0 mi SSW 8.1 mph - N/A   Overcast
5:00 AM 69.8 °F - 60.8 °F 73% 29.73 in 15.0 mi SW 10.4 mph - N/A   Mostly Cloudy
6:00 AM 69.8 °F - 60.8 °F 73% 29.74 in 15.0 mi SSW 9.2 mph - N/A   Overcast
7:00 AM 69.8 °F - 60.8 °F 73% 29.75 in 12.0 mi SSW 10.4 mph - N/A   Overcast
7:31 AM - - - N/A% - 12.0 mi SSW 8.1 mph - N/A Rain Light Rain Showers
8:00 AM 68 °F - 63 °F 79% 29.77 in 10 mi SSW 12.7 mph - - Rain Light Rain Showers
8:00 AM 68.0 °F - 62.6 °F 83% 29.77 in 10.0 mi SSW 13.8 mph - N/A Rain Light Rain Showers
9:00 AM 68.0 °F - 62.6 °F 83% 29.77 in 15.0 mi SSW 15.0 mph - N/A   Overcast
9:29 AM - - - N/A% - 15.0 mi SSW 15.0 mph 20.7 mph N/A   Overcast
10:00 AM 68.0 °F - 62.6 °F 83% 29.74 in 15.0 mi SSW 16.1 mph - N/A   Mostly Cloudy
11:00 AM 71.6 °F - 62.6 °F 73% 29.74 in 15.0 mi SSW 16.1 mph 23.0 mph N/A   Mostly Cloudy
12:00 PM 75.2 °F - 64.4 °F 69% 29.72 in 15.0 mi SSW 20.7 mph - N/A   Mostly Cloudy
1:00 PM 77.0 °F - 62.6 °F 61% 29.71 in 15.0 mi SW 19.6 mph - N/A   Mostly Cloudy
1:28 PM - - - N/A% - 15.0 mi SSW 15.0 mph 21.9 mph N/A Rain Light Rain Showers
2:00 PM 73 °F - 64 °F 65% 29.68 in 15 mi South 16.1 mph - - Rain Light Rain Showers
2:00 PM 73.4 °F - 64.4 °F 73% 29.68 in 15.0 mi South 16.1 mph - N/A Rain Light Rain Showers
2:27 PM - - - N/A% - 15.0 mi SW 17.3 mph 24.2 mph N/A   Mostly Cloudy
3:00 PM 77.0 °F - 62.6 °F 61% 29.68 in 15.0 mi SSW 23.0 mph 31.1 mph N/A   Mostly Cloudy
4:00 PM 80.6 °F 81.5 °F 60.8 °F 51% 29.65 in 15.0 mi SW 26.5 mph 32.2 mph N/A   Partly Cloudy
5:00 PM 82.4 °F 82.5 °F 59.0 °F 45% 29.63 in 15.0 mi SW 21.9 mph 29.9 mph N/A   Partly Cloudy
6:00 PM 73.4 °F - 60.8 °F 65% 29.67 in 12.0 mi West 24.2 mph 31.1 mph N/A Rain Light Rain Showers
6:51 PM - - - N/A% - 15.0 mi WSW 12.7 mph - N/A   Mostly Cloudy
7:00 PM 71.6 °F - 60.8 °F 69% 29.67 in 15.0 mi SW 12.7 mph 19.6 mph N/A   Mostly Cloudy
8:00 PM 73 °F - 60 °F 55% 29.67 in 15 mi WSW 16.1 mph - -   Partly Cloudy
8:00 PM 73.4 °F - 60.8 °F 65% 29.67 in 15.0 mi WSW 13.8 mph 25.3 mph N/A   Mostly Cloudy
9:00 PM 71.6 °F - 60.8 °F 69% 29.69 in 15.0 mi WSW 10.4 mph - N/A   Mostly Cloudy
9:45 PM - - - N/A% - 15.0 mi West 17.3 mph 28.8 mph N/A Rain , Thunderstorm Light Thunderstorms and Rain
10:00 PM 68.0 °F - 57.2 °F 68% 29.70 in 15.0 mi WSW 12.7 mph - N/A Thunderstorm Thunderstorm
10:30 PM - - - N/A% - 15.0 mi SW 10.4 mph - N/A   Mostly Cloudy
11:00 PM 66.2 °F - 57.2 °F 73% 29.70 in 15.0 mi WSW 11.5 mph - N/A   Mostly Cloudy